Temp
90 91 90 88 88 86 87 87 86 83 78 79 79 81 81 81 81 81 80 80 78 77 78 77 75 76 78 79 79 79 78 77 73 75 78 78 67 66 68 69 71 71 75
91 89 89 88 88 86 86 87 84 81 80 81 81 81 81 81 81 80 79 81 78 77 77 76 75 78 73 75 79 74 75 75 73 68 72 68 63 63 64 64 69 73 72
91 89 87 87 86 85 84 84 82 77 82 84 81 79 80 80 81 80 79 79 78 78 77 76 75 74 72 75 74 73 75 74 73 70 61 63 63 64 62 63 63 66 69
91 88 87 87 86 85 85 83 80 82 82 82 81 80 80 81 81 80 79 79 78 78 77 76 76 75 73 71 71 70 71 70 69 61 56 56 58 62 60 59 60 65 67
89 88 87 88 88 84 82 83 83 83 79 81 81 80 81 82 84 80 80 79 76 76 77 77 78 73 68 68 69 67 67 66 63 56 54 56 59 60 58 61 59 62 64
88 88 88 87 81 80 79 80 79 78 81 80 80 81 81 84 67 68 71 77 77 75 74 75 76 73 73 67 65 65 65 63 60 54 54 54 54 57 59 58 58 58 57
87 88 86 81 77 76 76 77 76 78 80 79 80 81 80 81 64 63 65 77 77 76 74 74 75 79 73 73 67 65 67 66 63 56 52 53 54 57 57 57 59 59 59
86 85 78 76 76 75 74 76 79 79 78 79 79 80 79 80 62 60 64 73 76 76 75 74 73 73 70 64 65 68 70 70 66 63 56 56 58 59 62 60 60 60 61
85 82 78 77 77 75 75 78 79 78 78 78 79 79 78 78 60 58 64 76 77 74 76 74 73 71 59 56 64 66 67 68 65 62 60 59 58 59 60 61 59 58 59
85 83 80 79 78 76 79 78 78 78 78 81 79 79 73 77 57 56 64 78 76 76 74 76 60 62 55 53 62 66 63 62 65 64 59 57 57 57 60 61 61 59 59
85 83 81 81 79 79 75 75 75 76 78 78 77 77 77 75 66 55 56 73 76 75 76 76 76 55 52 51 51 65 60 59 67 65 56 54 55 54 55 58 60 60 59
84 83 81 81 81 77 74 76 76 77 76 76 76 77 79 74 60 54 54 55 59 70 72 75 70 52 50 51 57 52 52 59 69 67 59 52 52 51 53 54 58 59 60
80 80 77 76 78 78 77 75 78 76 79 78 78 76 76 76 72 53 53 54 57 68 72 61 56 53 53 60 55 54 59 68 67 68 61 58 51 51 53 53 55 58 60
75 76 75 76 74 76 81 81 81 80 80 79 76 75 74 76 75 75 74 72 60 67 65 71 64 59 57 61 66 67 68 67 68 68 67 65 61 52 51 52 51 52 54
77 77 77 78 78 75 73 71 74 72 68 77 77 80 70 76 71 56 62 73 72 63 62 73 71 70 68 67 67 67 67 67 66 68 68 66 66 64 60 58 54 54 51
75 73 72 72 73 76 71 63 49 50 47 47 47 58 70 54 46 45 46 47 48 51 69 69 68 67 65 65 64 64 65 62 64 67 67 67 63 64 66 66 69 65 54
72 71 71 74 74 72 68 71 72 57 45 44 46 49 53 49 44 44 45 48 49 55 70 68 66 65 65 65 65 64 63 62 62 65 66 66 65 62 62 64 64 68 66
70 59 75 76 75 75 74 75 75 68 70 61 51 56 44 43 43 44 45 50 69 67 68 66 65 65 64 63 63 63 63 63 64 63 64 66 67 68 65 61 64 61 63
78 80 81 80 79 75 76 75 76 74 69 68 68 58 50 43 43 44 46 70 70 69 68 66 64 64 63 62 61 61 62 61 62 63 62 63 65 67 66 67 64 55 59
75 62 69 78 76 77 75 76 73 70 73 73 71 71 69 62 65 64 68 70 69 66 67 66 65 64 62 61 60 61 61 61 60 61 61 61 62 65 65 66 67 66 63
81 76 65 81 81 80 79 77 73 73 74 74 74 71 57 66 64 68 69 69 67 64 66 66 67 65 64 62 61 62 62 62 61 61 61 62 62 62 61 64 66 65 65
84 82 78 80 79 79 79 77 75 74 72 73 74 66 49 67 67 67 70 68 67 66 67 65 66 65 64 62 61 61 62 61 61 61 62 63 64 64 65 64 63 63 61
83 81 80 80 81 67 76 75 74 73 71 73 75 70 68 65 68 70 68 69 68 67 66 66 65 65 64 64 63 61 61 59 59 61 60 62 63 62 64 63 63 63 62
82 81 81 79 78 75 74 73 74 67 73 74 73 66 55 56 63 67 71 70 68 68 67 66 64 63 62 63 63 62 57 54 58 61 60 61 62 61 64 63 63 61 63
80 79 79 79 77 73 73 72 75 72 68 66 67 62 67 61 70 71 70 69 69 68 66 67 66 63 61 59 58 56 39 33 46 38 63 62 61 61 62 63 62 62 61
76 76 76 78 78 77 71 69 73 72 69 66 59 59 66 72 72 71 69 69 69 68 66 66 63 62 62 60 52 38 34 33 43 33 49 63 62 61 63 61 61 63 61
MSLP
1008.48 1009.03 1009.84 1010.42 1010.94 1011.57 1011.94 1012.54 1012.74 1013.56 1014.26 1014.78 1015.40 1015.22 1015.52 1015.82 1016.29 1016.68 1016.85 1016.92 1017.02 1017.01 1016.87 1016.74 1016.68 1016.41 1015.67 1015.25 1014.55 1013.89 1013.10 1012.46 1011.04 1009.88 1009.80 1009.24 1009.48 1008.90 1008.14 1007.59 1007.17 1006.74 1006.16
1007.67 1008.54 1009.02 1009.78 1010.27 1010.68 1010.92 1011.33 1012.37 1012.84 1013.34 1014.07 1014.74 1014.97 1015.44 1015.67 1016.00 1016.24 1016.47 1016.30 1016.74 1016.60 1016.69 1016.66 1016.36 1015.97 1015.79 1015.07 1014.16 1013.84 1013.30 1012.53 1011.43 1009.24 1008.88 1008.88 1009.08 1008.48 1007.62 1006.90 1006.10 1005.30 1005.16
1007.10 1007.84 1008.58 1009.09 1009.61 1010.00 1010.66 1011.31 1011.98 1012.65 1012.82 1013.49 1014.22 1014.86 1015.16 1015.51 1015.69 1016.11 1016.31 1016.41 1016.43 1016.39 1016.47 1016.34 1016.13 1015.89 1015.43 1014.86 1014.54 1013.93 1012.97 1012.31 1011.49 1010.23 1008.90 1008.90 1008.24 1007.63 1006.74 1006.01 1005.16 1004.53 1004.33
1006.50 1007.19 1007.82 1008.38 1008.96 1009.67 1010.22 1011.10 1011.72 1012.22 1012.58 1013.05 1013.70 1014.47 1014.94 1015.24 1015.42 1015.86 1015.95 1016.03 1016.12 1016.26 1016.28 1016.13 1015.83 1015.49 1015.16 1015.12 1014.64 1013.94 1013.03 1012.39 1011.47 1010.70 1009.66 1008.46 1007.57 1006.44 1006.23 1005.23 1004.12 1003.68 1003.19
1006.00 1006.70 1007.35 1007.98 1008.54 1009.30 1009.94 1010.80 1011.35 1011.84 1012.88 1013.22 1013.59 1014.20 1014.61 1014.69 1014.90 1015.36 1015.49 1015.76 1016.20 1016.18 1016.00 1015.71 1015.30 1015.37 1015.24 1015.21 1014.78 1014.00 1013.43 1012.42 1011.34 1010.38 1009.31 1008.07 1006.70 1005.70 1005.22 1004.34 1003.58 1003.05 1002.60
1005.68 1006.42 1007.07 1007.61 1008.54 1009.24 1010.00 1010.65 1011.25 1012.22 1012.50 1013.08 1013.40 1013.63 1014.04 1014.25 1014.61 1015.26 1015.64 1015.74 1015.82 1015.78 1015.52 1015.25 1015.14 1014.78 1014.33 1014.49 1014.23 1013.90 1013.57 1012.27 1011.10 1010.40 1009.10 1007.72 1006.18 1005.07 1004.00 1003.46 1002.88 1002.41 1002.09
1005.35 1006.13 1007.04 1008.14 1008.96 1009.64 1010.06 1010.61 1011.30 1011.68 1012.12 1012.59 1012.94 1013.31 1013.75 1014.16 1014.85 1015.32 1015.80 1015.62 1015.57 1015.42 1015.36 1015.17 1014.76 1014.24 1014.38 1014.19 1013.90 1013.27 1012.25 1011.54 1011.21 1010.46 1008.96 1007.40 1005.45 1003.64 1002.51 1002.08 1001.88 1001.74 1001.54
1005.58 1006.26 1007.53 1008.34 1008.99 1009.47 1010.02 1010.42 1010.72 1011.28 1011.84 1012.29 1012.67 1013.10 1013.68 1014.02 1014.86 1015.41 1015.70 1015.70 1015.36 1015.09 1014.90 1014.80 1014.68 1014.39 1014.46 1014.85 1014.08 1012.92 1011.84 1011.06 1010.56 1009.74 1008.73 1006.79 1004.83 1002.75 1001.48 1001.36 1001.36 1001.27 1001.38
1005.39 1006.40 1007.31 1008.05 1008.82 1009.67 1010.19 1010.71 1011.34 1011.73 1011.84 1012.14 1012.56 1012.94 1013.31 1013.84 1014.77 1015.44 1015.70 1014.95 1014.59 1014.98 1014.64 1014.55 1014.50 1014.52 1014.89 1014.98 1014.01 1012.95 1011.82 1010.72 1010.06 1008.87 1008.14 1006.51 1004.58 1002.80 1001.94 1001.56 1001.47 1001.48 1001.04
1005.22 1006.26 1007.19 1007.74 1008.26 1008.84 1009.42 1010.27 1010.89 1011.75 1011.76 1011.68 1012.37 1012.91 1013.38 1013.78 1014.94 1015.52 1015.68 1014.49 1014.25 1014.52 1014.38 1013.86 1014.47 1014.85 1014.99 1014.80 1014.26 1013.20 1012.16 1011.27 1009.93 1008.94 1007.82 1006.11 1005.06 1003.89 1002.63 1002.21 1001.99 1001.69 1001.45
1004.94 1005.71 1006.45 1006.69 1007.06 1007.84 1008.05 1008.88 1010.69 1011.56 1011.67 1011.93 1012.34 1013.09 1013.47 1013.74 1014.90 1015.53 1015.38 1015.06 1014.51 1014.46 1013.91 1013.49 1013.65 1014.54 1014.83 1014.58 1014.24 1013.50 1012.93 1011.61 1009.83 1009.27 1008.63 1007.37 1006.17 1005.07 1004.13 1003.26 1002.62 1002.20 1001.78
1005.54 1006.19 1006.81 1007.48 1006.83 1008.53 1009.07 1008.16 1010.20 1011.23 1011.81 1011.92 1012.28 1012.82 1013.06 1014.18 1014.76 1015.43 1015.66 1015.60 1015.64 1015.04 1014.13 1013.89 1014.39 1014.77 1014.57 1014.21 1013.72 1013.32 1012.22 1011.14 1009.78 1009.28 1009.07 1008.84 1007.52 1006.71 1005.85 1004.76 1003.87 1003.18 1002.72
1006.09 1006.77 1007.43 1007.95 1007.85 1008.99 1008.51 1009.23 1009.90 1010.88 1011.10 1011.51 1011.77 1012.14 1012.89 1013.58 1014.70 1015.13 1015.39 1015.52 1015.68 1015.11 1014.81 1014.97 1014.99 1014.57 1014.14 1013.38 1013.37 1012.82 1011.81 1011.02 1010.11 1009.35 1009.48 1009.32 1009.44 1008.53 1007.10 1005.74 1004.86 1004.05 1003.53
1006.78 1007.64 1008.54 1008.08 1008.66 1008.46 1007.96 1009.44 1009.12 1009.75 1010.39 1011.03 1011.50 1011.99 1012.68 1013.13 1013.66 1014.33 1014.58 1015.04 1015.12 1014.95 1014.75 1014.33 1014.42 1014.18 1013.81 1013.53 1012.88 1012.52 1012.15 1011.64 1010.69 1009.88 1009.52 1009.48 1009.22 1008.68 1008.03 1007.32 1006.41 1005.10 1004.38
1007.16 1007.67 1007.89 1007.93 1008.95 1009.66 1009.60 1010.06 1009.97 1010.31 1011.42 1011.48 1011.67 1011.72 1012.58 1013.10 1014.17 1014.70 1014.88 1014.98 1015.16 1015.40 1014.94 1013.96 1013.80 1013.50 1013.36 1013.30 1013.08 1012.76 1012.27 1011.79 1011.19 1010.44 1009.80 1009.59 1009.18 1008.83 1008.13 1007.52 1007.28 1006.78 1006.25
1007.35 1008.07 1008.65 1009.67 1008.34 1009.21 1010.53 1011.08 1011.44 1011.54 1012.18 1012.08 1012.23 1012.64 1013.23 1013.99 1015.07 1015.40 1015.85 1016.10 1016.02 1015.54 1014.71 1014.20 1014.01 1013.84 1013.84 1013.68 1013.58 1013.14 1012.75 1012.65 1012.08 1011.18 1010.75 1010.14 1009.74 1009.37 1008.44 1007.98 1007.01 1006.86 1007.17
1007.99 1008.28 1007.11 1009.01 1009.42 1009.33 1010.13 1010.49 1011.08 1012.70 1012.68 1012.74 1013.05 1012.96 1013.54 1015.21 1015.35 1015.78 1016.04 1016.16 1015.90 1015.22 1014.74 1014.56 1014.48 1014.36 1014.42 1014.25 1014.03 1013.72 1013.37 1013.40 1012.95 1012.01 1011.32 1010.78 1010.46 1010.14 1009.67 1009.07 1008.79 1007.71 1007.38
1007.47 1008.17 1007.70 1007.84 1008.88 1009.35 1009.32 1009.84 1010.49 1011.58 1011.81 1013.44 1013.20 1013.88 1014.60 1015.24 1015.62 1015.96 1016.02 1015.98 1015.20 1015.00 1015.07 1015.05 1015.03 1015.00 1014.96 1014.85 1014.69 1014.36 1013.96 1013.71 1013.16 1012.86 1012.20 1011.47 1010.88 1010.26 1010.00 1010.08 1009.57 1009.23 1008.56
1007.62 1007.55 1007.54 1007.84 1008.31 1008.52 1008.90 1009.66 1010.01 1010.62 1011.39 1012.32 1013.38 1014.88 1015.20 1015.63 1015.94 1016.09 1015.90 1015.23 1015.02 1015.07 1015.26 1015.36 1015.61 1015.57 1015.57 1015.50 1015.45 1015.12 1014.64 1014.43 1014.04 1013.37 1013.04 1012.45 1011.76 1011.10 1010.60 1010.24 1010.11 1010.30 1009.67
1007.94 1008.26 1007.92 1007.92 1008.28 1008.37 1008.94 1009.16 1009.51 1010.23 1010.45 1011.77 1012.65 1013.20 1014.33 1015.44 1015.52 1015.62 1015.26 1015.12 1015.21 1015.50 1015.46 1015.59 1015.89 1016.08 1016.15 1016.11 1015.91 1015.64 1015.18 1014.98 1014.66 1014.21 1013.85 1013.42 1012.98 1012.13 1011.50 1011.02 1010.64 1010.28 1010.23
1006.70 1007.58 1008.00 1007.67 1007.76 1007.91 1008.04 1008.53 1009.43 1009.82 1010.20 1011.18 1011.71 1012.52 1013.74 1014.58 1015.14 1014.92 1014.74 1015.10 1015.56 1015.86 1015.92 1016.08 1016.04 1016.26 1016.24 1016.23 1016.20 1015.77 1015.48 1015.27 1015.21 1014.90 1014.42 1013.96 1013.50 1013.01 1012.86 1012.16 1011.54 1011.34 1011.08
1006.54 1006.72 1007.50 1007.38 1007.42 1007.77 1008.04 1008.57 1009.01 1009.54 1010.11 1010.72 1011.47 1013.24 1014.16 1014.58 1014.78 1014.67 1014.81 1015.45 1015.86 1016.27 1016.43 1016.62 1016.54 1016.60 1016.74 1016.79 1016.64 1016.26 1015.88 1015.76 1015.70 1015.45 1014.91 1014.31 1013.94 1013.38 1012.94 1012.58 1012.36 1012.20 1012.30
1006.75 1006.93 1007.14 1007.36 1007.46 1008.10 1008.38 1008.72 1008.99 1009.57 1010.17 1010.70 1011.36 1013.02 1013.86 1014.55 1014.27 1014.52 1015.07 1015.47 1015.99 1016.37 1016.74 1016.88 1016.83 1016.84 1017.04 1017.02 1016.99 1016.88 1016.71 1016.76 1016.47 1016.15 1015.62 1014.92 1014.34 1014.18 1013.48 1013.15 1012.96 1012.69 1012.65
1006.86 1006.94 1007.09 1007.39 1007.61 1007.99 1008.41 1008.87 1009.12 1009.41 1009.92 1010.56 1011.82 1013.31 1014.26 1014.80 1014.74 1014.59 1014.91 1015.58 1016.09 1016.50 1016.81 1017.14 1017.48 1017.61 1017.56 1017.28 1017.32 1017.38 1017.97 1018.15 1017.38 1016.56 1016.14 1015.52 1014.90 1014.59 1014.06 1013.78 1013.48 1013.52 1013.21
1006.98 1007.17 1007.27 1007.67 1007.91 1008.41 1008.78 1009.02 1009.38 1010.12 1010.90 1011.84 1012.68 1013.51 1013.87 1014.53 1014.10 1014.57 1015.19 1015.72 1016.10 1016.47 1016.93 1017.16 1017.42 1017.84 1018.08 1018.19 1018.37 1018.56 1019.38 1019.19 1018.44 1018.12 1016.08 1015.70 1015.46 1015.11 1014.78 1014.35 1014.12 1013.99 1013.97
1007.24 1007.43 1007.58 1007.64 1007.74 1008.10 1008.72 1009.36 1009.61 1010.44 1011.27 1012.25 1013.29 1013.74 1013.76 1013.58 1013.96 1014.61 1015.26 1015.72 1016.10 1016.53 1016.98 1017.38 1017.90 1018.08 1018.03 1018.48 1019.24 1019.72 1019.59 1019.24 1018.54 1018.27 1017.64 1015.85 1015.63 1015.63 1015.08 1014.91 1014.75 1014.33 1014.38
Wind_Speed
19 18 16 16 17 13 15 15 16 14 9 9 8 6 6 6 8 8 7 4 6 5 6 7 10 11 10 11 11 12 12 14 17 16 16 17 16 18 17 16 16 16 14
16 15 14 14 15 16 16 17 16 13 13 10 8 7 8 8 9 9 8 5 6 6 7 9 11 10 13 12 10 14 14 14 16 25 18 16 16 16 17 19 16 14 13
14 15 14 14 14 16 16 15 14 13 14 11 9 8 8 9 9 8 6 6 7 6 8 9 12 13 13 12 13 13 14 14 17 17 19 15 15 14 13 14 14 14 12
14 14 14 15 15 15 15 14 12 14 12 10 9 8 8 9 8 8 7 8 7 7 9 10 12 13 13 14 13 16 15 17 18 15 14 16 13 14 10 11 11 10 11
13 13 13 12 13 12 10 12 13 11 8 9 9 9 10 8 8 8 7 6 6 9 10 11 12 12 14 11 11 15 17 16 15 13 14 14 14 12 11 8 9 8 9
12 11 10 10 6 7 9 11 8 10 11 9 9 10 9 7 11 6 2 7 8 9 10 11 12 14 8 12 10 18 18 18 17 12 14 15 18 15 12 10 9 7 6
11 9 7 7 8 8 9 9 10 12 11 10 10 9 9 8 9 7 6 7 9 9 10 11 11 10 12 14 18 20 19 17 15 16 16 17 19 18 16 11 10 7 7
10 9 9 9 10 10 9 11 12 10 10 9 9 9 9 6 9 7 8 8 8 9 9 10 11 11 10 13 15 17 17 17 16 14 16 18 17 15 9 6 5 5 5
12 11 10 10 11 11 10 9 8 8 8 9 8 10 9 8 9 7 7 8 7 8 8 9 8 9 11 12 13 15 17 15 17 20 24 25 27 22 9 1 1 2 3
11 11 11 11 13 13 12 11 9 8 9 9 9 9 7 7 7 8 6 6 6 7 9 6 11 7 8 9 11 13 15 14 16 19 18 19 20 20 16 6 4 3 4
13 13 13 15 16 16 15 13 10 9 9 9 8 7 8 7 8 6 2 6 5 7 8 7 6 11 10 10 10 10 12 14 13 14 13 14 14 16 13 12 11 6 4
7 7 9 10 10 7 10 13 12 10 9 8 8 8 7 5 9 6 2 2 4 7 7 7 7 11 11 11 9 12 14 11 10 11 11 13 12 14 13 13 13 9 7
6 5 6 8 10 12 12 11 10 10 9 9 8 6 4 7 7 8 6 3 6 6 6 4 8 10 10 9 5 10 11 9 10 11 11 9 11 11 14 13 13 12 13
8 5 7 9 7 10 10 9 9 9 9 7 6 5 6 6 5 7 5 6 9 7 4 4 4 8 5 7 7 8 8 9 10 10 10 10 4 7 9 9 11 12 8
6 7 8 9 8 5 5 4 1 7 2 5 4 4 3 5 5 10 7 4 6 4 8 3 5 6 7 7 8 8 9 9 10 10 11 10 11 10 7 4 2 9 11
8 6 4 2 8 7 6 5 16 13 6 7 7 3 9 17 14 11 9 6 3 8 1 5 6 7 7 8 8 8 9 11 10 10 10 11 9 12 11 11 11 9 6
7 3 7 7 6 6 6 7 8 7 11 11 6 12 13 14 13 11 10 7 2 6 5 5 6 7 7 7 7 8 9 9 9 9 10 9 9 9 12 11 11 11 10
7 2 4 6 7 7 7 7 6 6 7 7 9 9 14 13 12 10 8 5 3 4 5 6 6 7 7 7 7 8 8 9 9 9 10 10 10 9 9 9 11 10 11
4 4 3 5 6 5 6 5 6 7 8 10 11 9 8 8 8 6 8 2 4 5 5 5 6 6 6 7 7 7 7 8 8 8 9 10 10 10 10 9 8 10 10
6 4 1 5 6 7 6 6 5 5 9 10 10 11 11 10 7 5 4 4 5 5 5 5 5 5 6 6 6 6 7 8 9 9 10 9 10 10 10 10 10 9 8
5 7 5 3 4 4 4 8 8 8 9 9 9 10 13 7 6 4 5 5 5 4 5 5 6 5 5 5 6 6 6 7 7 7 7 7 8 7 8 10 9 10 10
1 3 5 5 5 4 4 4 6 7 8 10 10 11 12 7 7 6 6 5 5 5 5 4 4 6 6 6 6 7 7 7 8 8 8 8 7 7 7 7 8 8 10
2 3 4 3 2 5 6 5 7 6 8 10 11 12 9 6 3 6 6 6 5 5 5 4 5 5 5 5 6 6 8 8 7 7 8 8 7 8 7 6 8 7 8
3 3 3 4 4 5 5 6 6 8 10 9 10 10 6 6 6 5 6 6 5 5 5 5 6 7 6 6 7 8 8 8 8 7 8 7 7 7 6 6 7 9 7
4 4 4 3 4 4 5 6 7 7 8 8 10 8 9 7 7 7 7 6 5 5 6 5 5 6 8 10 10 11 9 6 8 12 6 6 7 7 7 6 6 6 8
4 4 3 3 3 2 6 7 9 10 10 10 8 7 9 9 8 7 6 6 6 6 6 6 6 7 7 9 10 8 6 7 8 10 11 6 6 7 7 6 7 6 7
Wind_Direction
214 215 212 212 211 204 211 210 205 201 193 187 207 187 199 205 223 237 257 259 239 271 292 295 306 312 308 312 307 295 306 309 305 295 302 304 309 295 286 275 266 262 262
212 214 214 213 209 205 210 203 200 194 184 192 198 200 208 214 229 231 233 236 248 274 300 302 308 316 314 306 306 311 309 305 304 302 305 308 298 289 284 282 271 265 258
206 208 214 211 208 212 212 206 195 189 186 191 188 201 206 219 225 223 231 238 252 278 297 304 307 315 310 315 314 307 308 312 308 304 303 303 294 289 284 278 273 262 247
202 207 210 210 212 212 217 207 203 201 192 188 183 200 214 221 215 224 224 239 256 280 291 296 306 306 316 321 309 313 309 311 309 299 295 294 289 291 266 267 269 260 258
198 205 210 214 214 211 201 212 206 195 185 186 188 197 210 213 211 217 231 254 271 279 293 301 308 321 282 283 307 310 312 308 300 304 298 296 296 294 284 271 257 261 253
190 199 202 202 176 188 183 195 187 178 185 187 187 194 203 221 126 150 274 253 269 279 291 307 313 294 342 296 307 310 302 295 309 304 300 297 294 287 278 270 254 242 252
179 181 172 151 155 160 166 173 172 194 187 181 185 196 204 219 134 151 195 254 276 290 300 309 309 322 320 338 321 316 306 317 316 316 303 298 292 294 279 256 243 233 240
160 141 140 150 160 161 160 171 178 174 174 179 186 192 208 202 149 177 195 247 270 283 301 305 308 318 353 340 325 319 323 324 339 326 315 309 308 312 310 238 245 240 260
142 148 152 155 151 148 163 167 162 169 174 181 189 195 200 198 156 176 198 250 269 294 301 303 318 316 8 339 330 322 324 333 325 345 332 331 344 344 329 312 231 250 277
132 132 143 159 158 159 159 156 162 185 182 183 191 196 187 194 143 165 221 274 293 306 290 306 95 30 341 339 335 330 329 338 334 351 343 351 353 358 359 347 339 304 299
141 153 164 169 165 171 160 145 161 188 172 199 178 183 181 207 149 164 158 283 317 311 315 324 348 29 332 325 306 346 321 307 340 7 356 353 359 3 4 5 14 1 329
115 146 162 175 153 152 156 131 160 178 177 178 181 192 171 161 119 149 148 345 4 297 312 338 341 350 317 300 309 320 298 316 348 13 12 357 355 359 355 358 1 10 17
101 126 152 166 145 171 145 143 159 176 184 196 192 199 185 170 154 137 166 170 234 283 352 348 277 280 285 296 349 309 335 358 356 6 6 16 1 343 354 2 5 5 27
101 140 185 165 164 169 149 167 170 178 198 194 185 200 202 169 159 171 172 188 217 249 215 203 306 264 256 309 338 0 11 0 352 1 11 354 11 355 358 359 10 2 16
134 153 163 150 164 146 54 41 1 68 6 206 185 210 137 173 95 69 38 32 1 24 294 349 1 11 13 8 2 9 7 6 2 1 359 12 5 4 14 334 21 27 29
128 107 89 333 144 148 156 98 46 50 35 57 64 4 70 95 106 97 89 79 326 302 298 13 17 18 15 11 3 3 13 8 1 360 5 3 16 10 9 18 11 41 44
125 140 120 177 167 154 151 165 144 78 64 64 71 94 103 128 121 126 128 127 9 302 38 33 21 20 13 10 4 9 8 15 355 0 2 13 17 23 8 21 20 14 44
73 80 140 147 172 176 162 154 154 168 145 114 74 108 122 128 136 152 185 238 139 79 50 29 23 17 12 14 8 5 11 5 12 7 4 9 8 14 36 26 22 25 18
172 152 161 151 162 142 141 164 178 166 140 138 127 134 114 119 142 193 232 16 48 51 41 48 26 21 18 14 8 2 6 10 1 8 13 8 12 10 20 26 50 36 13
134 75 166 158 139 173 175 192 162 157 158 153 166 151 146 152 156 151 152 96 72 48 39 46 46 28 28 13 12 5 10 13 10 10 10 10 5 9 12 15 20 27 41
138 131 358 223 190 189 183 173 182 188 168 166 166 149 140 153 152 173 108 100 83 65 51 29 35 38 28 28 13 6 16 20 17 7 6 10 7 17 17 5 13 26 14
144 143 169 231 171 198 172 187 195 171 180 163 149 121 124 149 159 164 120 122 102 77 65 55 36 41 35 25 11 4 15 17 14 2 360 359 12 3 10 22 24 20 28
171 169 161 189 192 105 175 189 168 157 155 171 149 151 154 155 175 109 144 119 114 93 80 55 45 53 38 42 32 23 12 8 357 358 349 353 9 355 11 16 23 25 34
144 149 165 153 173 181 162 181 164 164 157 147 134 141 138 150 183 162 127 120 118 109 100 89 66 49 45 38 37 38 31 8 333 353 337 353 4 358 9 16 29 24 27
167 190 185 170 199 168 167 154 135 117 114 131 143 142 152 186 171 136 131 137 127 113 93 88 87 85 65 53 47 38 29 341 340 322 320 5 9 355 18 27 11 33 27
163 177 186 202 192 174 137 162 147 148 144 138 135 151 182 176 149 139 139 142 141 116 112 98 92 74 68 69 53 33 1 344 344 330 314 6 12 25 354 28 20 27 39